Location: Brno
(49.2000°N, 16.6330°E)
Time: 18:18:17
(UTC+02:00)

RESURS DK-1 - Visible Passes

Search period start: 18 April 2014 00:00
Search period end: 28 April 2014 00:00
Orbit: 561 x 569 km, 69.9° (Epoch: 18 April)

Date Brightness Start Highest point End Pass type
(mag) Time Alt. Az. Time Alt. Az. Time Alt. Az.
18 Apr 4.2 00:19:39 28° NW 00:19:39 28° NW 00:23:11 10° NNE visible
18 Apr 3.5 22:42:57 32° NE 22:42:57 32° NE 22:45:26 10° NE visible
19 Apr 4.5 00:18:54 21° WNW 00:19:48 22° NW 00:23:08 10° N visible
19 Apr 2.5 22:42:00 62° ENE 22:42:00 62° ENE 22:45:36 10° NNE visible
20 Apr 5.0 00:17:56 13° WNW 00:20:05 18° NW 00:23:01 10° N visible
20 Apr 4.4 21:04:49 12° E 21:04:49 12° E 21:05:43 10° ENE visible
20 Apr 2.4 22:40:43 57° SW 22:41:32 81° WNW 22:45:44 10° NNE visible
21 Apr 5.3 00:17:59 10° WNW 00:20:24 15° NW 00:22:49 10° N visible
21 Apr 3.9 21:02:59 16° ESE 21:03:58 17° ESE 21:06:38 10° ENE visible
21 Apr 2.8 22:38:49 19° SW 22:41:40 60° WNW 22:45:49 10° NNE visible
22 Apr 5.5 00:19:00 10° WNW 00:20:44 12° NW 00:22:29 10° N visible
22 Apr 3.6 21:00:41 10° SSE 21:03:56 22° ESE 21:07:11 10° NE visible
22 Apr 3.4 22:37:49 10° SW 22:41:50 45° NW 22:45:52 10° NNE visible
23 Apr 5.8 00:20:43 10° NW 00:21:05 10° NNW 00:21:27 10° NNW visible
23 Apr 3.2 21:00:18 10° S 21:03:55 30° ESE 21:07:35 10° NE visible
23 Apr 4.0 22:38:11 10° WSW 22:42:01 35° NW 22:45:53 10° NNE visible
24 Apr 2.8 21:00:03 10° S 21:03:57 40° ESE 21:07:52 10° NE visible
24 Apr 4.5 22:38:38 10° WSW 22:42:14 27° NW 22:45:51 10° NNE visible
25 Apr 2.4 20:59:55 10° SSW 21:03:59 55° ESE 21:08:05 10° NE visible
25 Apr 5.0 22:39:10 10° W 22:42:28 22° NW 22:45:47 10° N visible
26 Apr 2.3 20:59:54 10° SSW 21:04:03 76° ESE 21:08:15 10° NNE visible
26 Apr 5.4 22:39:49 10° W 22:42:44 18° NW 22:45:39 10° N visible
27 Apr 6.0 03:42:31 10° NNE 03:43:52 11° NE 03:45:14 10° NE visible
27 Apr 2.5 20:59:59 10° SSW 21:04:09 81° WNW 21:08:21 10° NNE visible
27 Apr 5.7 22:40:37 10° WNW 22:43:01 15° NW 22:45:26 10° N visible
